Погода в Лесосибирске

Россия / Красноярский край     58°13′18″N   92°30′13″E
темп.,
°C
ветер,
м/с
пор.,
м/с
влажн.,
%
обл.,
%
осадки,
мм/ч
давл.,
гПа
погр.,
м
24 июля, сб
сб2401:00+15в22665 0.0 101135
04:00+14в22760 0.0 101146
07:00+18в29660 0.0 1011245
10:00+25вюв59440 0.0 1010978
13:00+29вюв57310 0.0 10092084
16:00+30вюв47270 0.0 10082257
19:00+27вюв23490 0.0 100866
22:00+20в22640 0.0 100912
25 июля, вс
вс2501:00+18вюв22722 0.0 101022
04:00+16в22735 0.0 101045
07:00+20вюв28665 0.0 1010213
10:00+26вюв36435 0.0 1010685
13:00+30вюв47311 0.0 10082050
16:00+32вюв46270 0.0 10072438
19:00+28в24490 0.0 100676
22:00+21в22640 0.0 100613
26 июля, пн
пн2601:00+19в22690 0.0 100628
04:00+17в28700 0.0 1005142
07:00+20вюв39666 0.0 1005264
10:00+27вюв474332 0.0 1003653
13:00+31юв472910 0.0 10022194
16:00+32юв4626100 0.0 10002841
19:00+27ююв1155100 0.0 99912
22:00+22вюв226594 0.0 99928
27 июля, вт
вт2701:00+19юв227520 0.0 99841
04:00+18в238394 0.1 99857
07:00+20ююв258691 0.4 999218
10:00+23зюз4576100 0.4 1000887
13:00+19зюз4672100 0.6 10021027
16:00+18зюз4667100 0.0 10041141
19:00+17з4660100 0.0 10061309
22:00+15зюз4663100 0.0 1006883
28 июля, ср
ср2801:00+13з3767100 0.0 1008777
04:00+11юз2677100 0.0 1009329
07:00+12зюз3676100 0.0 1010442
10:00+15зюз3461100 0.0 10101261
13:00+15зсз3555100 0.0 10111534
16:00+16сз3555100 0.1 10111425
19:00+15сз2564100 0.1 1012331
22:00+11зсз1174100 0.0 101210